Regional Weather Roundup
Issued by NWS

Home | Current Version | Previous Version | Text Only | Print | Product List | Glossary On
Versions: 1 2 3 4 5 6 7 8 9 10 11 12 13 14 15 16 17 18 19 20 21 22 23 24 25 26 27 28 29 30 31 32 33 34 35 36 37 38 39 40 41 42 43 44 45 46 47 48 49 50
000
ASUS43 KOAX 290210
RWRNE

WEATHER ROUNDUP FOR NEBRASKA
NATIONAL WEATHER SERVICE OMAHA NE
900 PM CDT THU APR 28 2016

NOTES: SATELLITE DATA IS BEING USED TO AUGMENT CLOUD COVER ABOVE
       12000 FEET.
       "FAIR" INDICATES FEW OR NO CLOUDS BELOW 12,000 FEET WITH NO
       SIGNIFICANT WEATHER AND/OR OBSTRUCTIONS TO VISIBILITY.

  * THESE STATIONS DO NOT REPORT WEATHER SUCH AS RAIN...SNOW OR FOG.

NEZ001>004-019>022-054>056-290300-
NEBRASKA PANHANDLE

CITY           SKY/WX    TMP DP  RH WIND       PRES   REMARKS
SCOTTSBLUFF    CLOUDY    38  34  85 SE3       30.09R
ALLIANCE       CLOUDY    33  32  96 SW5       30.07R WCI  29
CHADRON        CLOUDY    40  35  83 E9        30.09S WCI  34
KIMBALL        CLOUDY    37  33  85 E5        30.06R WCI  33
SIDNEY         CLOUDY    39  33  79 N8        30.07R WCI  33
$$

NEZ057>060-069>072-079>082-290300-
SOUTHWEST NEBRASKA

CITY           SKY/WX    TMP DP  RH WIND       PRES   REMARKS
NORTH PLATTE   CLOUDY    43  38  82 CALM      30.06R
IMPERIAL       CLOUDY    45  38  76 N3        30.06R
LEXINGTON      CLOUDY    45  41  85 N3        30.06R
MCCOOK         CLOUDY    46  39  76 NE8       30.06R
OGALLALA       CLOUDY    43  37  78 N3        30.07R
$$

NEZ005>010-023>029-035>040-094-290300-
NORTH CENTRAL NEBRASKA

CITY           SKY/WX    TMP DP  RH WIND       PRES   REMARKS
VALENTINE      CLOUDY    39  37  92 NW7       30.10S WCI  34
AINSWORTH      CLOUDY    39  37  93 N9        30.09R WCI  33
BROKEN BOW     CLOUDY    44  39  82 N8        30.06R
O`NEILL        CLOUDY    41  39  94 N8        30.08F FOG
ORD            CLOUDY    43  39  86 NE10      30.05R
THEDFORD       CLOUDY    42  39  88 N5        30.08R
$$

NEZ041-046>049-061>064-073>077-083>087-290300-
SOUTH CENTRAL NEBRASKA

CITY           SKY/WX    TMP DP  RH WIND       PRES   REMARKS
GRAND ISLAND   CLOUDY    45  40  82 N8        30.07R
AURORA         CLOUDY    46  42  85 NE9       30.06R
HASTINGS       CLOUDY    47  41  80 N8        30.05R
HEBRON         CLOUDY    50  43  77 NE7       30.06R
HOLDREGE       CLOUDY    46  41  85 N3        30.06R
KEARNEY *      CLOUDY    45  39  81 NE6       30.06R
YORK           CLOUDY    46  41  81 N10       30.06R
$$

NEZ011>018-030>034-042>045-290300-
NORTHEAST NEBRASKA

CITY           SKY/WX    TMP DP  RH WIND       PRES   REMARKS
NORFOLK        CLOUDY    43  38  82 NW6       30.07R
ALBION         CLOUDY    43  38  82 N9        30.06S
BLAIR          CLOUDY    46  41  83 N9        30.05R
COLUMBUS *     CLOUDY    45  34  65 NW12      30.07R
FREMONT        CLOUDY    46  40  82 N5        30.06S
TEKAMAH        CLOUDY    46  41  82 N9        30.06R
WAYNE          CLOUDY    43  41  92 N6        30.08R
$$

NEZ050>053-065>068-078-088>093-290300-
SOUTHEAST NEBRASKA

CITY           SKY/WX    TMP DP  RH WIND       PRES   REMARKS
LINCOLN        CLOUDY    49  41  74 N9        30.07R
OMAHA EPPLEY   CLOUDY    47  41  80 N10       30.06R
BEATRICE       CLOUDY    49  43  78 N7        30.06R
FALLS CITY     CLOUDY    52  42  69 N7        30.04R
NEBRASKA CITY  CLOUDY    49  42  76 N6        30.05R
PLATTSMOUTH    CLOUDY    47  42  81 N6        30.05R
$$

NEZ044-045-051>053-067-290300-
OMAHA AREA

CITY           SKY/WX    TMP DP  RH WIND       PRES   REMARKS
OMAHA EPPLEY   CLOUDY    47  41  80 N10       30.06R
BLAIR          CLOUDY    46  41  83 N9        30.05R
FREMONT        CLOUDY    46  40  82 N5        30.06S
MILLARD        CLOUDY    48  41  77 N3        30.05S
PLATTSMOUTH    CLOUDY    47  42  81 N6        30.05R
WAHOO          CLOUDY    47  43  87 N9        30.06R
$$



USA.gov is the U.S. government's official web portal to all federal, state and local government web resources and services.